This demonstration page uses our WeatherBlox Daily Observations layout. Learn more.

Left ArrowRight Arrow

Hourly Observations for May 6, 2015

Temp ( °F °C ) Dew Point ( °F °C ) Humidity (%) Winds ( mph kmh ) Pressure ( in mb ) Visibility ( mi km ) Precip ( " mm )
12:53 am 00:53 Clear 67 19.4 60 15.6 79 79 SE 9 15 29.76 1008 10 16 0.00 0.00
1:53 am 01:53 Clear 65 18.3 60 15.6 84 84 SE 8 13 29.76 1008 10 16 0.00 0.00
2:53 am 02:53 Clear 64 17.8 60 15.6 87 87 SE 9 15 29.74 1007 8 13 0.00 0.00
3:53 am 03:53 Clear with Mist and Fog 63 17.2 60 15.6 90 90 SE 8 13 29.73 1007 6 10 0.00 0.00
4:53 am 04:53 Clear with Mist and Fog 62 16.7 59 15 90 90 SE 8 13 29.73 1007 5 8 0.00 0.00
5:53 am 05:53 Clear with Mist and Fog 62 16.7 59 15 90 90 SSE 7 11 29.73 1007 4 6 0.00 0.00
6:40 am 06:40 Mostly Clear with Mist and Fog 61 16 57 14 88 88 Calm 29.80 1009 3 4 0.00 0.00
6:53 am 06:53 Partly Cloudy with Mist and Fog 60 15.6 57 13.9 90 90 SE 5 7 29.75 1008 1 2 0.00 0.00
6:56 am 06:56 Mostly Cloudy with Mist and Fog 60 15.6 57 13.9 90 90 SE 5 7 29.80 1009 1 1 0.00 0.00
7:08 am 07:08 Mostly Cloudy with Fog 61 16 57 14 88 88 ESE 7 11 29.80 1009 0 0 0.00 0.00
7:53 am 07:53 Mostly Cloudy with Fog 62 16.7 60 15.6 93 93 SSE 3 6 29.77 1008 1 1 0.00 0.00
8:06 am 08:06 Mostly Cloudy with Fog 62 16.7 60 15.6 93 93 S 6 9 29.80 1009 0 0 0.00 0.00
8:23 am 08:23 Mostly Cloudy with Mist and Fog 62 16.7 60 15.6 93 93 S 8 13 29.83 1010 1 1 0.00 0.00
8:33 am 08:33 Cloudy with Mist and Fog 62 16.7 60 15.6 93 93 S 7 11 29.83 1010 2 2 0.00 0.00
8:40 am 08:40 Cloudy with Mist and Fog 63 17 61 16 94 94 S 7 11 29.83 1010 3 5 0.00 0.00
8:53 am 08:53 Cloudy with Mist and Fog 63 17.2 60 15.6 90 90 S 7 11 29.80 1009 5 8 0.00 0.00
9:15 am 09:15 Partly Cloudy 65 18.3 59 15 81 81 S 5 7 29.83 1010 8 13 0.00 0.00
9:53 am 09:53 Sunny 69 20.6 55 12.8 61 61 WSW 5 7 29.80 1009 10 16 0.00 0.00
10:53 am 10:53 Sunny 75 23.9 45 7.2 34 34 VRB 3 6 29.79 1009 10 16 0.00 0.00
11:53 am 11:53 Sunny 80 26.7 42 5.6 26 26 SSW 7 11 29.78 1008 10 16 0.00 0.00
12:53 pm 12:53 Sunny 83 28.3 37 2.8 19 19 VRB 5 7 29.75 1008 10 16 0.00 0.00
1:53 pm 13:53 Sunny 86 30 34 1.1 15 15 SW 9 15 29.72 1007 10 16 0.00 0.00
2:53 pm 14:53 Sunny 86 30 37 2.8 18 18 SW 12 19 29.70 1006 10 16 0.00 0.00
3:53 pm 15:53 Sunny 88 31.1 36 2.2 16 16 SW 8 13 29.67 1005 10 16 0.00 0.00
4:53 pm 16:53 Sunny 88 31.1 34 1.1 15 15 VRB 6 9 29.64 1004 10 16 0.00 0.00
5:53 pm 17:53 Sunny 89 31.7 34 1.1 14 14 SSE 12 19 29.62 1003 10 16 0.00 0.00
6:53 pm 18:53 Sunny 88 31.1 33 0.6 14 14 SSW 10 17 29.60 1002 10 16 0.00 0.00
7:53 pm 19:53 Sunny 87 30.6 39 3.9 18 18 S 8 13 29.59 1002 10 16 0.00 0.00
8:53 pm 20:53 Clear 78 25.6 60 15.6 54 54 SE 17 28 29.63 1003 10 16 0.00 0.00
9:53 pm 21:53 Clear 74 23.3 59 15 60 60 SE 20 31 29.65 1004 10 16 0.00 0.00
10:53 pm 22:53 Clear 73 22.8 59 15 62 62 SE 23 37 29.66 1005 10 16 0.00 0.00
11:53 pm 23:53 Clear 72 22.2 61 16.1 68 68 SSE 18 30 29.66 1004 10 16 0.00 0.00

Powered by AerisWeather